EW7285 Weather Reports


time (UTC)temp
C
wind
direction
speed
KPH
gust
KPH
rain 1hr
cm
rain 24hr
cm
rain mn
cm
humidity
%
barometer
mb
20260503004557 13 327 9.7 14.5 0.00 0.00 0.00 56 1006.7
20260503003059 13 318 8.0 14.5 0.00 0.00 0.00 55 1006.5
20260503001546 13 291 4.8 12.9 0.00 0.00 0.00 53 1006.1
20260503000035 14 306 8.0 14.5 0.00 0.00 0.00 53 1006.0
20260502234531 14 316 1.6 6.4 0.00 0.00 0.00 51 1005.6
20260502233028 15 329 4.8 8.0 0.00 0.00 0.00 49 1005.7
20260502231527 15 351 4.8 9.7 0.00 0.00 0.00 48 1005.7
20260502230022 16 5 12.9 17.7 0.00 0.00 0.00 46 1005.8
20260502224530 16 264 6.4 14.5 0.00 0.00 0.00 45 1005.6
20260502223014 17 254 8.0 16.1 0.00 0.00 0.00 44 1005.6
20260502221511 17 261 8.0 17.7 0.00 0.00 0.00 44 1005.7
20260502220008 17 261 9.7 16.1 0.00 0.00 0.00 43 1005.6
20260502214506 17 267 6.4 17.7 0.00 0.00 0.00 43 1005.7
20260502213008 17 238 9.7 17.7 0.00 0.00 0.00 43 1005.9
20260502211505 17 229 8.0 32.2 0.00 0.00 0.00 42 1005.9
20260502210004 18 260 11.3 22.5 0.00 0.00 0.00 40 1005.9
20260502204503 18 238 14.5 24.1 0.00 0.00 0.00 39 1006.1
20260502203002 18 238 17.7 29.0 0.00 0.00 0.00 38 1005.9
20260502201502 18 217 16.1 33.8 0.00 0.00 0.00 38 1006.0
20260502200002 18 266 11.3 27.4 0.00 0.00 0.00 39 1006.0
20260502194500 18 238 16.1 24.1 0.00 0.00 0.00 40 1005.8
20260502193100 18 236 6.4 17.7 0.00 0.00 0.00 41 1005.8
20260502193001 18 217 6.4 17.7 0.00 0.00 0.00 41 1005.8
20260502191610 17 225 1.6 6.4 0.00 0.00 0.00 41 1005.8
20260502190059 18 242 0.0 4.8 0.00 0.00 0.00 40 1005.6
20260502184600 18 242 0.0 0.0 0.00 0.00 0.00 39 1005.5
20260502183111 19 242 3.2 9.7 0.00 0.00 0.00 37 1005.4
20260502181557 20 247 4.8 12.9 0.00 0.00 0.00 37 1005.5
20260502163053 22 219 11.3 22.5 0.00 0.00 0.00 34 1005.5
20260502161549 22 221 9.7 29.0 0.00 0.00 0.00 35 1005.7
20260502151539 22 262 19.3 27.4 0.00 0.00 0.00 34 1006.4
20260502123009 21 230 24.1 33.8 0.00 0.00 0.00 35 1008.6
20260502121506 21 190 16.1 38.6 0.00 0.00 0.00 37 1008.7
20260502114502 20 263 22.5 43.5 0.00 0.00 0.00 36 1009.3
20260502113116 20 220 27.4 48.3 0.00 0.00 0.00 37 1009.6
20260502111606 20 262 29.0 40.2 0.00 0.00 0.00 38 1009.9
20260502110104 20 231 24.1 41.8 0.00 0.00 0.00 38 1010.0
20260502104555 20 244 22.5 38.6 0.00 0.00 0.00 38 1010.3
20260502103112 19 235 24.1 45.1 0.00 0.00 0.00 38 1010.2
20260502101557 18 235 29.0 45.1 0.00 0.00 0.00 39 1010.5
20260502100148 18 242 22.5 40.2 0.00 0.00 0.00 39 1010.6
20260502071521 15 234 25.7 45.1 0.00 0.00 0.00 39 1012.1
20260502070018 15 223 20.9 35.4 0.00 0.00 0.00 42 1012.0
20260502064515 15 246 20.9 33.8 0.00 0.00 0.00 43 1012.1
20260502063013 14 217 24.1 38.6 0.00 0.00 0.00 43 1012.2
20260502061512 14 215 12.9 25.7 0.00 0.00 0.00 47 1012.4
20260502060010 13 223 16.1 25.7 0.00 0.00 0.00 47 1012.3
20260502054511 13 202 11.3 20.9 0.00 0.00 0.00 48 1012.4
20260502053009 13 225 11.3 19.3 0.00 0.00 0.00 50 1012.5
20260502051506 12 243 11.3 25.7 0.00 0.00 0.00 51 1012.6
20260502050003 12 210 11.3 19.3 0.00 0.00 0.00 53 1012.7
20260502044501 12 237 12.9 20.9 0.00 0.00 0.00 54 1012.7
20260502043108 12 245 8.0 24.1 0.00 0.00 0.00 56 1012.7
20260502041557 11 208 11.3 19.3 0.00 0.00 0.00 56 1012.8
20260502040055 11 232 6.4 16.1 0.00 0.00 0.00 57 1012.8
20260502034554 11 230 6.4 14.5 0.00 0.00 0.00 58 1012.9
20260502033052 11 198 8.0 12.9 0.00 0.00 0.00 58 1012.9
20260502031550 11 189 6.4 14.5 0.00 0.00 0.00 58 1013.0
20260502030100 11 238 9.7 16.1 0.00 0.00 0.00 58 1013.2
20260502024545 11 200 6.4 17.7 0.00 0.00 0.00 57 1013.4
20260502023043 11 221 6.4 11.3 0.00 0.00 0.00 57 1013.5
20260502021540 11 221 9.7 16.1 0.00 0.00 0.00 57 1013.6
20260502020038 11 238 4.8 16.1 0.00 0.00 0.00 56 1013.7
20260502014536 11 211 8.0 20.9 0.00 0.00 0.00 55 1013.8
20260502013033 12 214 11.3 25.7 0.00 0.00 0.00 54 1013.9
20260502011530 12 235 14.5 17.7 0.00 0.00 0.00 53 1014.1
20260502010026 12 227 8.0 16.1 0.00 0.00 0.00 53 1014.1